Location: Ruda Slaska
(50.2667°N, 18.7000°E)
Time: 13:50:53
(UTC+01:00)

ISS - Visible Passes

Search period start: 14 December 2018 00:00
Search period end: 24 December 2018 00:00
Orbit: 401 x 408 km, 51.6° (Epoch: 15 December)

Date Brightness Start Highest point End Pass type
(mag) Time Alt. Az. Time Alt. Az. Time Alt. Az.
14 Dec -0.3 17:16:50 10° WSW 17:17:44 11° SW 17:18:35 10° SSW visible
15 Dec -0.7 16:23:33 10° W 16:25:49 18° SW 16:28:05 10° S visible
23 Dec -0.3 06:15:09 10° SSE 06:16:05 11° SE 06:17:02 10° ESE visible
